Wind_Speed
15 15 16 19 20 20 21 22 23 22 21 20 21 21 20 19 17 16 15 15 14 13 13 13 13 13 13 14 14 15 15 15 16 16 17 18 19 18 18 18 19 19 18
16 17 16 16 17 18 20 19 19 20 20 21 22 22 21 19 17 15 14 14 14 14 14 16 16 16 16 17 17 17 17 18 18 19 19 20 20 20 20 21 22 22 21
15 16 18 16 13 12 13 13 14 16 17 18 19 19 18 17 15 14 14 14 14 15 16 17 18 17 17 18 18 19 20 21 22 22 22 21 21 22 22 23 23 24 23
12 13 15 15 13 12 10 9 9 11 13 14 14 15 16 16 15 15 15 15 15 16 17 18 19 19 19 19 20 20 22 24 25 25 24 22 23 24 25 25 26 26 26
10 11 13 15 16 15 11 9 9 11 11 11 13 14 15 15 15 15 16 16 16 17 18 19 20 21 22 22 22 22 23 24 25 26 25 24 26 27 27 27 28 28 29
11 11 12 14 16 15 11 9 9 10 10 11 12 13 13 13 13 14 14 14 13 12 12 14 16 18 19 20 21 22 23 24 26 27 28 27 28 29 30 31 31 31 32
10 10 11 11 10 9 8 7 7 8 8 9 11 11 12 12 12 12 11 11 11 12 13 14 15 17 17 18 19 21 23 24 25 26 27 26 27 29 30 30 31 32 33
10 10 11 11 8 7 8 8 8 8 9 10 12 13 13 12 12 12 12 14 15 16 17 17 17 17 17 18 19 21 23 24 25 26 24 23 25 26 27 29 29 30 31
11 12 12 12 11 8 7 9 10 11 12 12 12 12 13 12 13 14 16 17 18 20 20 20 20 21 22 22 23 24 24 25 25 26 22 22 25 25 24 25 27 27 29
10 11 12 13 12 9 7 9 12 13 12 11 12 13 14 14 15 16 18 20 20 20 19 20 21 23 24 24 25 26 25 26 26 26 21 23 25 25 25 26 27 28 30
10 11 11 14 14 11 8 9 11 12 12 12 13 14 16 17 18 18 18 19 19 19 18 19 20 20 21 22 22 23 23 24 25 24 22 24 25 26 27 28 30 31 31
12 12 12 13 13 13 12 8 8 11 13 14 15 16 17 17 17 18 18 18 18 18 19 20 19 19 19 19 20 21 21 23 25 24 23 25 26 27 29 30 31 32 33
16 15 14 14 14 14 15 12 9 9 12 14 15 16 16 17 18 19 18 16 16 16 17 19 19 19 19 20 20 21 23 26 27 27 23 24 28 30 31 32 34 35 36
22 21 17 17 17 17 17 16 14 12 12 13 14 16 17 17 18 19 19 18 19 19 20 19 18 17 19 21 21 22 24 27 28 29 28 28 31 34 35 37 38 39 41
25 24 20 19 19 19 18 18 17 16 15 15 17 18 18 18 19 20 21 21 21 22 21 20 21 20 22 23 25 26 27 29 31 33 34 35 35 36 38 41 43 44 45
27 25 22 20 20 20 20 19 19 18 18 16 16 16 18 18 19 19 19 20 21 22 22 22 23 25 24 24 26 27 28 30 33 35 37 38 38 40 42 44 46 49 51
28 27 24 23 21 20 19 21 21 20 19 19 18 19 20 21 23 23 21 22 24 24 26 27 28 28 27 27 29 31 33 34 35 36 38 40 43 44 46 47 50 52 54
27 28 27 25 23 22 21 23 24 24 22 22 21 22 24 23 25 25 24 26 28 28 29 31 31 32 33 36 37 38 39 40 41 42 43 46 48 51 53 54 55 57 59
26 28 29 26 25 25 24 24 24 25 24 24 25 26 29 28 29 29 28 30 31 32 33 34 35 36 38 41 43 45 47 47 48 51 54 56 57 58 59 60 61 63 65
26 28 29 28 28 28 27 26 26 27 27 26 27 29 31 32 33 33 32 35 36 37 38 38 40 42 43 44 46 48 51 53 56 59 61 64 65 65 64 64 65 66 67
28 28 29 31 32 34 33 32 32 32 32 32 33 34 34 35 35 36 37 39 41 43 44 44 46 48 50 52 53 54 54 57 60 62 63 66 68 68 67 66 67 68 69
30 30 31 33 36 38 39 39 39 37 36 36 38 38 39 39 38 37 39 41 43 47 49 51 53 55 57 58 59 59 60 60 61 62 64 66 68 69 69 69 70 70 70
33 34 33 35 39 41 42 44 44 43 41 40 41 42 43 43 42 42 43 45 48 50 51 54 55 58 58 59 60 61 61 60 61 65 68 69 69 68 68 70 71 70 64
35 35 35 38 40 43 45 46 47 47 46 45 46 46 46 45 45 45 46 48 51 52 53 55 54 55 55 56 57 58 60 63 66 67 67 66 65 66 68 69 68 64 60
34 33 36 41 44 46 47 47 48 49 49 49 48 46 46 47 49 49 49 50 51 52 53 54 54 55 56 58 59 62 64 66 66 66 64 64 66 67 68 65 60 58 57
33 34 37 42 45 47 47 47 48 49 49 48 47 47 49 51 51 50 51 51 52 53 53 54 55 55 57 60 63 66 66 65 64 64 65 68 69 69 67 63 58 56 56
Wind_Direction
282 277 267 261 260 261 263 263 261 259 259 254 249 250 252 253 252 248 247 248 250 251 252 253 251 249 250 253 256 257 256 255 254 253 253 254 257 262 263 263 265 268 278
282 278 272 268 263 262 264 263 258 252 250 249 248 250 252 254 251 244 243 245 246 247 248 249 249 249 250 251 254 257 258 257 256 256 254 254 255 257 260 263 266 268 271
281 276 270 273 269 262 259 258 254 249 248 248 249 250 251 252 245 241 245 249 251 252 251 251 253 254 255 255 257 259 260 260 259 258 256 256 258 258 260 262 265 268 269
285 275 265 264 262 257 254 257 261 258 253 250 248 247 248 248 246 248 254 259 261 259 257 256 256 256 256 257 258 258 259 260 260 260 259 257 258 259 260 261 264 267 269
324 300 279 268 262 259 260 264 267 262 255 251 248 247 247 248 251 257 261 263 262 261 261 262 262 261 260 260 260 258 257 257 258 259 259 258 260 261 262 264 265 266 269
335 323 309 289 275 265 260 257 253 251 252 254 252 248 247 250 255 259 261 261 261 264 270 271 266 264 263 263 262 259 258 259 261 263 265 267 269 268 266 267 268 270 271
341 345 346 328 294 262 240 226 228 232 239 249 253 255 260 262 259 256 253 256 265 274 279 276 269 265 265 266 266 265 265 266 267 269 272 274 275 272 270 270 271 273 275
348 357 3 353 326 279 233 218 226 226 239 252 257 261 264 262 261 260 262 268 274 278 278 276 272 269 266 267 270 272 271 269 270 271 274 277 277 276 276 277 279 280 280
344 351 359 0 352 327 273 242 240 241 246 250 255 259 260 262 268 270 273 275 278 281 280 277 274 270 268 269 271 272 272 271 273 273 276 280 279 281 282 282 283 283 283
334 342 348 350 353 343 312 273 261 251 248 252 261 266 267 269 271 275 278 278 278 280 278 275 273 271 270 271 272 272 272 273 272 270 273 274 276 280 282 282 281 281 280
327 330 337 342 346 343 321 292 279 264 258 263 273 278 275 274 275 279 285 285 281 278 277 276 273 271 269 269 269 268 269 271 271 273 275 274 276 277 277 277 277 277 276
330 326 327 328 334 338 332 314 294 282 277 276 278 282 284 284 287 292 295 292 285 280 276 272 267 264 262 262 264 266 268 271 271 271 273 276 276 276 276 276 275 275 274
339 329 323 320 321 324 329 327 317 301 289 283 282 286 288 292 295 296 298 295 289 287 284 277 267 266 265 263 264 267 268 268 270 273 274 274 277 279 279 278 278 278 277
342 337 326 325 320 318 320 320 312 301 292 291 293 297 300 304 306 304 303 296 291 289 287 283 275 276 279 281 281 278 277 276 277 280 283 281 279 279 280 280 280 280 279
334 337 329 324 320 316 316 314 308 301 300 307 310 312 314 317 315 313 312 307 304 298 292 286 284 284 286 289 289 288 287 285 283 285 287 287 286 285 284 285 286 287 287
323 326 325 321 318 314 312 308 305 305 309 320 323 322 322 325 324 323 323 318 311 305 299 291 286 283 284 288 290 290 289 287 286 286 287 287 287 287 288 288 289 290 290
313 314 315 315 314 310 306 301 300 305 311 316 319 318 316 318 317 319 322 315 308 308 305 299 294 288 284 286 289 292 292 292 290 291 292 291 290 288 288 288 288 288 288
305 303 303 307 310 307 304 299 296 299 303 306 308 308 308 310 309 311 313 310 307 306 302 297 297 293 287 286 288 290 292 292 290 290 291 292 292 290 288 286 285 285 285
296 292 292 297 303 303 304 303 301 299 303 304 301 300 301 303 305 307 308 305 304 304 301 298 297 295 291 290 289 289 290 290 289 288 287 288 289 288 285 285 285 285 285
289 282 281 287 295 297 297 297 299 300 302 306 306 302 300 301 303 303 304 302 300 299 298 299 300 296 294 292 291 291 290 289 287 286 287 288 289 289 287 285 284 284 285
285 277 275 279 286 290 290 290 291 294 296 298 301 302 300 297 298 300 300 299 298 296 296 296 296 295 292 289 288 287 288 288 287 287 287 288 288 288 287 286 285 285 285
278 272 273 278 282 285 286 286 285 287 289 290 292 295 296 294 292 293 294 296 296 294 293 293 292 291 289 286 285 284 285 286 286 287 287 289 288 288 288 288 288 288 288
271 269 272 278 280 281 283 283 283 284 285 285 286 288 292 292 289 289 291 294 294 292 290 289 289 289 289 288 285 284 284 283 284 286 288 289 290 290 289 289 289 290 290
267 264 268 274 277 278 279 280 280 281 284 285 285 285 289 291 288 287 288 293 294 293 292 292 291 290 289 288 287 285 284 284 285 286 288 290 290 291 291 291 292 291 287
266 262 264 270 274 276 277 276 276 278 281 284 287 288 289 290 289 288 288 291 293 293 293 293 292 289 288 288 287 286 287 287 288 288 288 290 292 293 294 295 293 288 282
266 266 266 270 273 274 274 275 278 279 282 286 290 290 289 290 291 289 288 289 289 290 291 293 292 289 288 287 287 288 289 290 291 291 292 293 294 295 295 295 291 287 283
Height
5896 5894 5894 5894 5894 5894 5895 5895 5895 5895 5895 5895 5896 5896 5896 5897 5897 5897 5898 5898 5899 5899 5900 5901 5900 5900 5900 5901 5901 5902 5903 5903 5904 5905 5905 5906 5906 5907 5908 5908 5909 5910 5910
5893 5892 5891 5891 5890 5890 5891 5891 5891 5891 5891 5891 5892 5893 5894 5895 5895 5895 5896 5897 5897 5897 5897 5898 5898 5897 5898 5898 5899 5900 5900 5901 5901 5902 5903 5903 5903 5904 5905 5905 5906 5907 5908
5890 5889 5889 5888 5887 5887 5887 5887 5887 5887 5888 5889 5890 5891 5892 5893 5893 5893 5894 5895 5895 5895 5895 5895 5895 5895 5896 5897 5897 5898 5898 5898 5898 5898 5899 5900 5900 5900 5901 5901 5902 5903 5904
5887 5886 5885 5885 5884 5884 5883 5883 5883 5884 5886 5887 5888 5889 5890 5890 5891 5890 5891 5891 5892 5892 5892 5892 5892 5893 5893 5894 5894 5895 5895 5895 5895 5895 5896 5897 5896 5896 5897 5897 5898 5899 5900
5885 5884 5883 5882 5881 5880 5880 5880 5880 5882 5883 5885 5886 5887 5887 5887 5887 5888 5888 5888 5889 5889 5889 5889 5890 5890 5890 5890 5890 5891 5891 5891 5891 5891 5892 5894 5893 5893 5894 5894 5894 5895 5896
5885 5882 5881 5879 5879 5878 5878 5878 5879 5880 5881 5882 5883 5884 5884 5884 5885 5885 5886 5886 5887 5887 5887 5887 5887 5886 5886 5886 5886 5886 5887 5887 5887 5888 5888 5889 5889 5890 5890 5890 5890 5891 5891
5884 5881 5880 5878 5877 5877 5877 5877 5877 5878 5879 5880 5881 5882 5882 5882 5882 5883 5884 5884 5885 5885 5884 5884 5884 5883 5882 5882 5883 5883 5883 5883 5883 5883 5883 5885 5885 5885 5885 5885 5885 5886 5886
5883 5881 5879 5877 5876 5876 5875 5875 5876 5876 5877 5878 5878 5879 5879 5880 5880 5881 5881 5881 5882 5881 5881 5880 5880 5880 5879 5879 5879 5879 5879 5878 5878 5878 5879 5881 5880 5879 5879 5880 5880 5880 5880
5882 5879 5877 5876 5875 5875 5875 5875 5875 5875 5875 5874 5875 5876 5877 5877 5878 5878 5878 5878 5877 5877 5876 5875 5875 5875 5875 5875 5875 5875 5875 5874 5874 5873 5875 5876 5874 5874 5874 5874 5874 5874 5874
5881 5880 5878 5877 5876 5875 5874 5874 5874 5873 5872 5872 5873 5873 5874 5874 5875 5875 5874 5874 5873 5872 5872 5871 5871 5871 5871 5871 5871 5871 5870 5869 5869 5868 5871 5869 5868 5868 5868 5868 5868 5868 5868
5881 5880 5879 5877 5875 5874 5873 5872 5871 5871 5870 5871 5871 5871 5871 5870 5871 5870 5870 5870 5869 5869 5868 5867 5867 5867 5866 5866 5866 5866 5865 5864 5863 5863 5865 5863 5863 5863 5863 5863 5863 5862 5862
5879 5878 5878 5877 5875 5873 5872 5870 5869 5869 5868 5869 5869 5868 5867 5866 5867 5866 5866 5865 5864 5864 5863 5863 5863 5862 5862 5862 5861 5860 5860 5859 5858 5858 5859 5858 5858 5858 5858 5857 5856 5856 5855
5878 5877 5876 5875 5874 5873 5871 5870 5868 5867 5867 5866 5866 5865 5864 5863 5863 5862 5862 5861 5859 5859 5859 5858 5858 5858 5858 5857 5856 5856 5855 5854 5852 5851 5853 5853 5852 5851 5850 5849 5849 5848 5847
5876 5874 5873 5873 5872 5871 5870 5869 5867 5867 5866 5865 5864 5862 5860 5859 5858 5858 5858 5857 5856 5856 5856 5855 5854 5854 5853 5852 5852 5851 5851 5849 5847 5845 5846 5846 5846 5844 5842 5841 5840 5839 5838
5875 5874 5872 5871 5870 5869 5868 5867 5865 5865 5864 5863 5861 5860 5858 5856 5855 5854 5853 5852 5851 5851 5850 5850 5849 5849 5848 5847 5846 5845 5845 5843 5842 5840 5838 5837 5837 5836 5834 5832 5830 5829 5827
5873 5872 5871 5870 5869 5867 5866 5865 5864 5862 5861 5860 5859 5857 5855 5854 5852 5851 5850 5849 5847 5846 5846 5845 5845 5844 5843 5842 5840 5839 5837 5835 5834 5832 5830 5828 5827 5826 5824 5823 5820 5818 5816
5871 5871 5869 5868 5867 5866 5865 5864 5862 5861 5859 5858 5857 5855 5854 5852 5850 5848 5848 5846 5844 5844 5843 5840 5839 5838 5837 5836 5834 5832 5830 5828 5826 5824 5822 5819 5817 5815 5814 5812 5809 5807 5804
5869 5868 5867 5866 5865 5864 5863 5862 5860 5858 5857 5856 5855 5853 5851 5850 5848 5846 5845 5842 5840 5840 5838 5836 5834 5833 5831 5828 5826 5824 5822 5820 5817 5815 5812 5810 5807 5804 5801 5798 5795 5793 5790
5867 5865 5864 5863 5863 5861 5860 5859 5857 5856 5854 5853 5851 5850 5847 5846 5844 5842 5841 5838 5835 5833 5830 5828 5827 5825 5822 5820 5818 5815 5812 5810 5807 5804 5801 5799 5796 5793 5788 5784 5780 5778 5775
5862 5862 5860 5859 5859 5858 5856 5855 5854 5852 5851 5849 5847 5845 5843 5841 5838 5836 5835 5830 5827 5825 5822 5820 5818 5815 5812 5809 5807 5804 5801 5798 5794 5791 5787 5784 5780 5777 5773 5769 5765 5762 5760
5856 5856 5856 5855 5854 5853 5852 5851 5849 5848 5846 5845 5842 5840 5838 5835 5832 5829 5827 5823 5820 5816 5813 5812 5809 5805 5802 5798 5795 5792 5789 5785 5780 5777 5773 5769 5766 5762 5758 5753 5749 5746 5743
5850 5850 5850 5849 5848 5846 5846 5845 5843 5842 5840 5839 5837 5834 5832 5829 5826 5822 5818 5815 5812 5807 5804 5802 5798 5794 5789 5785 5781 5778 5776 5773 5767 5762 5757 5753 5750 5747 5743 5738 5733 5729 5725
5842 5842 5843 5843 5841 5839 5839 5837 5836 5834 5833 5832 5830 5827 5824 5821 5817 5814 5810 5806 5801 5796 5793 5788 5785 5780 5776 5771 5767 5764 5761 5757 5754 5749 5742 5737 5733 5730 5725 5721 5716 5712 5708
5833 5835 5836 5835 5833 5831 5830 5830 5828 5826 5824 5823 5820 5818 5815 5812 5808 5805 5800 5796 5790 5785 5781 5775 5771 5766 5763 5758 5753 5749 5746 5742 5738 5735 5729 5723 5719 5714 5709 5705 5700 5696 5692
5824 5827 5829 5828 5826 5823 5822 5821 5819 5817 5815 5812 5809 5807 5804 5801 5798 5794 5789 5784 5779 5775 5770 5765 5760 5754 5750 5745 5740 5735 5730 5725 5721 5717 5713 5708 5703 5698 5693 5688 5683 5680 5677
5817 5818 5820 5819 5818 5816 5814 5812 5810 5807 5804 5802 5799 5796 5792 5789 5787 5784 5778 5773 5767 5763 5758 5753 5748 5742 5738 5732 5726 5720 5715 5709 5703 5699 5695 5691 5686 5681 5676 5672 5668 5664 5661